Location: Degersen
(52.2871°N, 9.5716°E)
Time: 20:57:55
(UTC+00:00)

COSMOS 2406 - Pass Details

Date: 20 January 2026
Orbit: 843 x 861 km, 71.0° (Epoch: 16 February)

Event Time Altitude Azimuth Distance (km) Brightness Sun altitude
Exits shadow 05:35:09 18° 314° (NW) 1,978 4.6 -15.4°
Maximum altitude 05:39:06 46° 249° (WSW) 1,141 3.5 -14.8°
Drops below altitude 10° 05:44:32 10° 178° (S) 2,491 5.9 -14.0°
Sets 05:47:04 0° 172° (S) 3,424 6.7 -13.7°
